Weather in Assy

Russia / Republic of Bashkortostan     54°22′20″N   57°33′46″E
temp.,
°C
wind,
m/s
gust,
m/s
humid.,
%
clouds,
%
prec.,
mm/h
press.,
hPa
HPBL,
m
28 february, sun
sun2823:00−14se239499 0.5 1005107
02:00−13se2294100 0.0 100368
05:00−12se2396100 0.4 1002133
08:00−12se2396100 0.6 1002114
11:00−9se2394100 1.1 1001233
14:00−5sse2390100 0.4 1001349
17:00−4sse2394100 0.8 1002294
20:00−7sse1297100 0.6 100432
1 march, mon
mon123:00−9se129695 0.8 100722
02:00−10sse129697 0.3 100935
05:00−11s129695 0.6 101133
08:00−12wsw119793 0.3 101321
11:00−9w129096 0.6 1015327
14:00−8wnw2288100 0.3 1015470
17:00−9nw2391100 0.6 1016396
20:00−14nw1297100 0.2 101721
2 march, tue
tue223:00−17wnw119892 0.3 101820
02:00−18wsw119891 0.1 101820
05:00−19wsw119896 0.1 101820
08:00−20ssw2299100 0.1 101723
11:00−15s249197 0.1 1016297
14:00−10sw358491 0.0 1013578
17:00−9ssw388493 0.0 1011591
20:00−12s41091100 0.0 1010472
3 march, wed
wed323:00−13s31093100 0.2 1010517
02:00−14sse3994100 0.2 1007390
05:00−14se279699 0.4 1005262
08:00−12se2396100 0.4 100380
11:00−5s3794100 1.3 1001548
14:00−2ssw4789100 0.8 999852
17:00−2sw2495100 1.7 998374
20:00−4wsw1298100 1.1 99872
4 march, thu
thu423:00−7w2496100 1.9 999192
02:00−9wsw2896100 0.5 1000453
05:00−11w2896100 1.0 1002339
08:00−12w1297100 0.4 100446
11:00−9wnw3691100 0.8 1006702
14:00−9wnw5790100 0.3 1007695
17:00−10wnw4791100 0.5 1009728
20:00−13w2597100 0.3 1012160